Year,Month,Day,Hour,Minute,Value (Times are PST for temperature in C)
2009,09,29,00,00,7.30
2009,09,29,00,01,7.30
2009,09,29,00,02,7.30
2009,09,29,00,03,7.20
2009,09,29,00,04,7.20
2009,09,29,00,05,7.20
2009,09,29,00,06,7.20
2009,09,29,00,07,7.20
2009,09,29,00,08,7.20
2009,09,29,00,09,7.20
2009,09,29,00,10,7.20
2009,09,29,00,11,7.10
2009,09,29,00,12,7.10
2009,09,29,00,13,7.10
2009,09,29,00,14,7.10
2009,09,29,00,15,7.00
2009,09,29,00,16,7.00
2009,09,29,00,17,7.00
2009,09,29,00,18,6.90
2009,09,29,00,19,6.90
2009,09,29,00,20,6.90
2009,09,29,00,21,6.90
2009,09,29,00,22,6.90
2009,09,29,00,23,6.80
2009,09,29,00,24,6.80
2009,09,29,00,25,6.80
2009,09,29,00,26,6.90
2009,09,29,00,27,6.90
2009,09,29,00,28,6.90
2009,09,29,00,29,6.80
2009,09,29,00,30,6.80
2009,09,29,00,31,6.80
2009,09,29,00,32,6.80
2009,09,29,00,33,6.70
2009,09,29,00,34,6.60
2009,09,29,00,35,6.60
2009,09,29,00,36,6.60
2009,09,29,00,37,6.50
2009,09,29,00,38,6.40
2009,09,29,00,39,6.40
2009,09,29,00,40,6.40
2009,09,29,00,41,6.30
2009,09,29,00,42,6.30
2009,09,29,00,43,6.30
2009,09,29,00,44,6.30
2009,09,29,00,45,6.30
2009,09,29,00,46,6.40
2009,09,29,00,47,6.40
2009,09,29,00,48,6.60
2009,09,29,00,49,6.90
2009,09,29,00,50,7.10
2009,09,29,00,51,7.30
2009,09,29,00,52,7.30
2009,09,29,00,53,7.40
2009,09,29,00,54,7.40
2009,09,29,00,55,7.40
2009,09,29,00,56,7.40
2009,09,29,00,57,7.30
2009,09,29,00,58,7.30
2009,09,29,00,59,7.30
2009,09,29,01,00,7.20
2009,09,29,01,01,7.00
2009,09,29,01,02,6.80
2009,09,29,01,03,6.80
2009,09,29,01,04,6.60
2009,09,29,01,05,6.60
2009,09,29,01,06,6.50
2009,09,29,01,07,6.40
2009,09,29,01,08,6.40
2009,09,29,01,09,6.40
2009,09,29,01,10,6.30
2009,09,29,01,11,6.30
2009,09,29,01,12,6.30
2009,09,29,01,13,6.30
2009,09,29,01,14,6.30
2009,09,29,01,15,6.30
2009,09,29,01,16,6.30
2009,09,29,01,17,6.30
2009,09,29,01,18,6.20
2009,09,29,01,19,6.20
2009,09,29,01,20,6.20
2009,09,29,01,21,6.20
2009,09,29,01,22,6.10
2009,09,29,01,23,6.00
2009,09,29,01,24,6.00
2009,09,29,01,25,6.00
2009,09,29,01,26,6.00
2009,09,29,01,27,6.00
2009,09,29,01,28,6.00
2009,09,29,01,29,6.00
2009,09,29,01,30,6.00
2009,09,29,01,31,6.00
2009,09,29,01,32,5.90
2009,09,29,01,33,5.90
2009,09,29,01,34,5.80
2009,09,29,01,35,5.80
2009,09,29,01,36,5.70
2009,09,29,01,37,5.70
2009,09,29,01,38,5.70
2009,09,29,01,39,5.70
2009,09,29,01,40,5.70
2009,09,29,01,41,5.70
2009,09,29,01,42,5.70
2009,09,29,01,43,5.90
2009,09,29,01,44,6.00
2009,09,29,01,45,6.10
2009,09,29,01,46,6.20
2009,09,29,01,47,6.20
2009,09,29,01,48,6.20
2009,09,29,01,49,6.20
2009,09,29,01,50,6.20
2009,09,29,01,51,6.20
2009,09,29,01,52,6.20
2009,09,29,01,53,6.10
2009,09,29,01,54,6.00
2009,09,29,01,55,6.00
2009,09,29,01,56,6.20
2009,09,29,01,57,6.20
2009,09,29,01,58,6.20
2009,09,29,01,59,6.20
2009,09,29,02,00,6.20
2009,09,29,02,01,6.20
2009,09,29,02,02,6.20
2009,09,29,02,03,6.20
2009,09,29,02,04,6.20
2009,09,29,02,05,6.20
2009,09,29,02,06,6.10
2009,09,29,02,07,6.10
2009,09,29,02,08,6.10
2009,09,29,02,09,6.10
2009,09,29,02,10,6.00
2009,09,29,02,11,6.00
2009,09,29,02,12,6.00
2009,09,29,02,13,5.90
2009,09,29,02,14,5.90
2009,09,29,02,15,5.80
2009,09,29,02,16,5.80
2009,09,29,02,17,5.80
2009,09,29,02,18,5.80
2009,09,29,02,19,5.80
2009,09,29,02,20,5.90
2009,09,29,02,21,5.90
2009,09,29,02,22,6.00
2009,09,29,02,23,6.00
2009,09,29,02,24,6.00
2009,09,29,02,25,6.00
2009,09,29,02,26,6.00
2009,09,29,02,27,6.00
2009,09,29,02,28,6.10
2009,09,29,02,29,6.10
2009,09,29,02,30,6.00
2009,09,29,02,31,6.00
2009,09,29,02,32,6.00
2009,09,29,02,33,5.90
2009,09,29,02,34,5.90
2009,09,29,02,35,5.80
2009,09,29,02,36,5.80
2009,09,29,02,37,5.80
2009,09,29,02,38,5.70
2009,09,29,02,39,5.70
2009,09,29,02,40,5.80
2009,09,29,02,41,5.80
2009,09,29,02,42,5.80
2009,09,29,02,43,5.70
2009,09,29,02,44,5.70
2009,09,29,02,45,5.70
2009,09,29,02,46,5.70
2009,09,29,02,47,5.70
2009,09,29,02,48,5.70
2009,09,29,02,49,5.70
2009,09,29,02,50,5.70
2009,09,29,02,51,5.70
2009,09,29,02,52,5.70
2009,09,29,02,53,5.60
2009,09,29,02,54,5.60
2009,09,29,02,55,5.70
2009,09,29,02,56,5.70
2009,09,29,02,57,5.70
2009,09,29,02,58,5.70
2009,09,29,02,59,5.70
2009,09,29,03,00,5.70
2009,09,29,03,01,5.70
2009,09,29,03,02,5.70
2009,09,29,03,03,5.80
2009,09,29,03,04,5.80
2009,09,29,03,05,5.80
2009,09,29,03,06,5.80
2009,09,29,03,07,5.80
2009,09,29,03,08,5.80
2009,09,29,03,09,5.70
2009,09,29,03,10,5.70
2009,09,29,03,11,5.70
2009,09,29,03,12,5.70
2009,09,29,03,13,5.70
2009,09,29,03,14,5.80
2009,09,29,03,15,5.80
2009,09,29,03,16,5.80
2009,09,29,03,17,5.70
2009,09,29,03,18,5.80
2009,09,29,03,19,5.80
2009,09,29,03,20,5.70
2009,09,29,03,21,5.70
2009,09,29,03,22,5.70
2009,09,29,03,23,5.70
2009,09,29,03,24,5.70
2009,09,29,03,25,5.80
2009,09,29,03,26,5.80
2009,09,29,03,27,5.90
2009,09,29,03,28,6.00
2009,09,29,03,29,6.00
2009,09,29,03,30,6.00
2009,09,29,03,31,5.90
2009,09,29,03,32,5.90
2009,09,29,03,33,5.90
2009,09,29,03,34,5.80
2009,09,29,03,35,5.80
2009,09,29,03,36,5.80
2009,09,29,03,37,5.80
2009,09,29,03,38,5.90
2009,09,29,03,39,5.90
2009,09,29,03,40,5.90
2009,09,29,03,41,5.90
2009,09,29,03,42,6.00
2009,09,29,03,43,6.00
2009,09,29,03,44,6.00
2009,09,29,03,45,6.10
2009,09,29,03,46,6.10
2009,09,29,03,47,6.20
2009,09,29,03,48,6.20
2009,09,29,03,49,6.20
2009,09,29,03,50,6.20
2009,09,29,03,51,6.30
2009,09,29,03,52,6.20
2009,09,29,03,53,6.20
2009,09,29,03,54,6.20
2009,09,29,03,55,6.20
2009,09,29,03,56,6.20
2009,09,29,03,57,6.10
2009,09,29,03,58,6.10
2009,09,29,03,59,6.10
2009,09,29,04,00,6.10
2009,09,29,04,01,6.00
2009,09,29,04,02,6.00
2009,09,29,04,03,6.10
2009,09,29,04,04,6.10
2009,09,29,04,05,6.10
2009,09,29,04,06,6.10
2009,09,29,04,07,6.10
2009,09,29,04,08,6.20
2009,09,29,04,09,6.20
2009,09,29,04,10,6.20
2009,09,29,04,11,6.20
2009,09,29,04,12,6.20
2009,09,29,04,13,6.20
2009,09,29,04,14,6.30
2009,09,29,04,15,6.30
2009,09,29,04,16,6.30
2009,09,29,04,17,6.30
2009,09,29,04,18,6.30
2009,09,29,04,19,6.30
2009,09,29,04,20,6.40
2009,09,29,04,21,6.40
2009,09,29,04,22,6.40
2009,09,29,04,23,6.40
2009,09,29,04,24,6.50
2009,09,29,04,25,6.60
2009,09,29,04,26,6.60
2009,09,29,04,27,6.70
2009,09,29,04,28,6.80
2009,09,29,04,29,6.80
2009,09,29,04,30,6.90
2009,09,29,04,31,6.90
2009,09,29,04,32,6.90
2009,09,29,04,33,6.90
2009,09,29,04,34,6.90
2009,09,29,04,35,6.90
2009,09,29,04,36,6.90
2009,09,29,04,37,6.90
2009,09,29,04,38,6.90
2009,09,29,04,39,6.90
2009,09,29,04,40,6.90
2009,09,29,04,41,6.90
2009,09,29,04,42,6.90
2009,09,29,04,43,7.00
2009,09,29,04,44,7.00
2009,09,29,04,45,7.10
2009,09,29,04,46,7.10
2009,09,29,04,47,7.10
2009,09,29,04,48,7.10
2009,09,29,04,49,7.10
2009,09,29,04,50,7.10
2009,09,29,04,51,7.10
2009,09,29,04,52,7.10
2009,09,29,04,53,7.10
2009,09,29,04,54,7.10
2009,09,29,04,55,7.10
2009,09,29,04,56,7.10
2009,09,29,04,57,7.20
2009,09,29,04,58,7.30
2009,09,29,04,59,7.30
2009,09,29,05,00,7.40
2009,09,29,05,01,7.40
2009,09,29,05,02,7.50
2009,09,29,05,03,7.50
2009,09,29,05,04,7.50
2009,09,29,05,05,7.50
2009,09,29,05,06,7.60
2009,09,29,05,07,7.60
2009,09,29,05,08,7.60
2009,09,29,05,09,7.60
2009,09,29,05,10,7.70
2009,09,29,05,11,7.70
2009,09,29,05,12,7.80
2009,09,29,05,13,7.80
2009,09,29,05,14,7.80
2009,09,29,05,15,7.80
2009,09,29,05,16,7.70
2009,09,29,05,17,7.60
2009,09,29,05,18,7.60
2009,09,29,05,19,7.60
2009,09,29,05,20,7.60
2009,09,29,05,21,7.50
2009,09,29,05,22,7.50
2009,09,29,05,23,7.60
2009,09,29,05,24,7.60
2009,09,29,05,25,7.70
2009,09,29,05,26,7.80
2009,09,29,05,27,7.70
2009,09,29,05,28,7.70
2009,09,29,05,29,7.70
2009,09,29,05,30,7.80
2009,09,29,05,31,7.80
2009,09,29,05,32,7.80
2009,09,29,05,33,7.80
2009,09,29,05,34,7.90
2009,09,29,05,35,7.90
2009,09,29,05,36,8.10
2009,09,29,05,37,8.20
2009,09,29,05,38,8.30
2009,09,29,05,39,8.40
2009,09,29,05,40,8.40
2009,09,29,05,41,8.40
2009,09,29,05,42,8.50
2009,09,29,05,43,8.50
2009,09,29,05,44,8.50
2009,09,29,05,45,8.50
2009,09,29,05,46,8.50
2009,09,29,05,47,8.60
2009,09,29,05,48,8.60
2009,09,29,05,49,8.60
2009,09,29,05,50,8.60
2009,09,29,05,51,8.70
2009,09,29,05,52,8.70
2009,09,29,05,53,8.70
2009,09,29,05,54,8.70
2009,09,29,05,55,8.70
2009,09,29,05,56,8.70
2009,09,29,05,57,8.70
2009,09,29,05,58,8.70
2009,09,29,05,59,8.70
2009,09,29,06,00,8.70
2009,09,29,06,01,8.70
2009,09,29,06,02,8.70
2009,09,29,06,03,8.70
2009,09,29,06,04,8.70
2009,09,29,06,05,8.70
2009,09,29,06,06,8.80
2009,09,29,06,07,8.80
2009,09,29,06,08,8.70
2009,09,29,06,09,8.70
2009,09,29,06,10,8.70
2009,09,29,06,11,8.70
2009,09,29,06,12,8.70
2009,09,29,06,13,8.70
2009,09,29,06,14,8.70
2009,09,29,06,15,8.80
2009,09,29,06,16,8.80
2009,09,29,06,17,8.80
2009,09,29,06,18,8.80
2009,09,29,06,19,8.80
2009,09,29,06,20,8.80
2009,09,29,06,21,8.80
2009,09,29,06,22,8.70
2009,09,29,06,23,8.70
2009,09,29,06,24,8.70
2009,09,29,06,25,8.60
2009,09,29,06,26,8.50
2009,09,29,06,27,8.50
2009,09,29,06,28,8.50
2009,09,29,06,29,8.40
2009,09,29,06,30,8.40
2009,09,29,06,31,8.40
2009,09,29,06,32,8.30
2009,09,29,06,33,8.30
2009,09,29,06,34,8.30
2009,09,29,06,35,8.30
2009,09,29,06,36,8.20
2009,09,29,06,37,8.20
2009,09,29,06,38,8.20
2009,09,29,06,39,8.20
2009,09,29,06,40,8.20
2009,09,29,06,41,8.10
2009,09,29,06,42,8.10
2009,09,29,06,43,8.10
2009,09,29,06,44,8.10
2009,09,29,06,45,8.10
2009,09,29,06,46,8.10
2009,09,29,06,47,8.10
2009,09,29,06,48,8.10
2009,09,29,06,49,8.10
2009,09,29,06,50,8.10
2009,09,29,06,51,8.10
2009,09,29,06,52,8.10
2009,09,29,06,53,8.20
2009,09,29,06,54,8.20
2009,09,29,06,55,8.20
2009,09,29,06,56,8.20
2009,09,29,06,57,8.20
2009,09,29,06,58,8.20
2009,09,29,06,59,8.20
2009,09,29,07,00,8.20
2009,09,29,07,01,8.20
2009,09,29,07,02,8.20
2009,09,29,07,03,8.20
2009,09,29,07,04,8.20
2009,09,29,07,05,8.20
2009,09,29,07,06,8.20
2009,09,29,07,07,8.20
2009,09,29,07,08,8.20
2009,09,29,07,09,8.20
2009,09,29,07,10,8.20
2009,09,29,07,11,8.20
2009,09,29,07,12,8.20
2009,09,29,07,13,8.20
2009,09,29,07,14,8.20
2009,09,29,07,15,8.20
2009,09,29,07,16,8.30
2009,09,29,07,17,8.30
2009,09,29,07,18,8.40
2009,09,29,07,19,8.40
2009,09,29,07,20,8.40
2009,09,29,07,21,8.40
2009,09,29,07,22,8.40
2009,09,29,07,23,8.30
2009,09,29,07,24,8.30
2009,09,29,07,25,8.30
2009,09,29,07,26,8.30
2009,09,29,07,27,8.30
2009,09,29,07,28,8.30
2009,09,29,07,29,8.30
2009,09,29,07,30,8.30
2009,09,29,07,31,8.30
2009,09,29,07,32,8.30
2009,09,29,07,33,8.40
2009,09,29,07,34,8.40
2009,09,29,07,35,8.40
2009,09,29,07,36,8.40
2009,09,29,07,37,8.40
2009,09,29,07,38,8.40
2009,09,29,07,39,8.40
2009,09,29,07,40,8.40
2009,09,29,07,41,8.40
2009,09,29,07,42,8.40
2009,09,29,07,43,8.30
2009,09,29,07,44,8.30
2009,09,29,07,45,8.30
2009,09,29,07,46,8.30
2009,09,29,07,47,8.30
2009,09,29,07,48,8.30
2009,09,29,07,49,8.30
2009,09,29,07,50,8.30
2009,09,29,07,51,8.30
2009,09,29,07,52,8.20
2009,09,29,07,53,8.20
2009,09,29,07,54,8.20
2009,09,29,07,55,8.20
2009,09,29,07,56,8.30
2009,09,29,07,57,8.30
2009,09,29,07,58,8.30
2009,09,29,07,59,8.40
2009,09,29,08,00,8.40
2009,09,29,08,01,8.40
2009,09,29,08,02,8.40
2009,09,29,08,03,8.40
2009,09,29,08,04,8.40
2009,09,29,08,05,8.40
2009,09,29,08,06,8.40
2009,09,29,08,07,8.40
2009,09,29,08,08,8.40
2009,09,29,08,09,8.40
2009,09,29,08,10,8.50
2009,09,29,08,11,8.50
2009,09,29,08,12,8.50
2009,09,29,08,13,8.50
2009,09,29,08,14,8.50
2009,09,29,08,15,8.50
2009,09,29,08,16,8.50
2009,09,29,08,17,8.50
2009,09,29,08,18,8.50
2009,09,29,08,19,8.50
2009,09,29,08,20,8.50
2009,09,29,08,21,8.50
2009,09,29,08,22,8.50
2009,09,29,08,23,8.50
2009,09,29,08,24,8.50
2009,09,29,08,25,8.50
2009,09,29,08,26,8.50
2009,09,29,08,27,8.50
2009,09,29,08,28,8.50
2009,09,29,08,29,8.50
2009,09,29,08,30,8.60
2009,09,29,08,31,8.60
2009,09,29,08,32,8.60
2009,09,29,08,33,8.60
2009,09,29,08,34,8.60
2009,09,29,08,35,8.60
2009,09,29,08,36,8.60
2009,09,29,08,37,8.60
2009,09,29,08,38,8.60
2009,09,29,08,39,8.60
2009,09,29,08,40,8.60
2009,09,29,08,41,8.60
2009,09,29,08,42,8.60
2009,09,29,08,43,8.60
2009,09,29,08,44,8.70
2009,09,29,08,45,8.70
2009,09,29,08,46,8.70
2009,09,29,08,47,8.70
2009,09,29,08,48,8.70
2009,09,29,08,49,8.70
2009,09,29,08,50,8.70
2009,09,29,08,51,8.70
2009,09,29,08,52,8.70
2009,09,29,08,53,8.70
2009,09,29,08,54,8.70
2009,09,29,08,55,8.70
2009,09,29,08,56,8.70
2009,09,29,08,57,8.70
2009,09,29,08,58,8.70
2009,09,29,08,59,8.70
2009,09,29,09,00,8.70
2009,09,29,09,01,8.70
2009,09,29,09,02,8.70
2009,09,29,09,03,8.70
2009,09,29,09,04,8.70
2009,09,29,09,05,8.70
2009,09,29,09,06,8.70
2009,09,29,09,07,8.80
2009,09,29,09,08,8.80
2009,09,29,09,09,8.80
2009,09,29,09,10,8.80
2009,09,29,09,11,8.80
2009,09,29,09,12,8.80
2009,09,29,09,13,8.90
2009,09,29,09,14,8.90
2009,09,29,09,15,8.90
2009,09,29,09,16,8.90
2009,09,29,09,17,8.90
2009,09,29,09,18,8.90
2009,09,29,09,19,8.90
2009,09,29,09,20,9.00
2009,09,29,09,21,9.00
2009,09,29,09,22,9.00
2009,09,29,09,23,9.00
2009,09,29,09,24,9.00
2009,09,29,09,25,9.00
2009,09,29,09,26,9.00
2009,09,29,09,27,9.10
2009,09,29,09,28,9.10
2009,09,29,09,29,9.10
2009,09,29,09,30,9.10
2009,09,29,09,31,9.10
2009,09,29,09,32,9.20
2009,09,29,09,33,9.20
2009,09,29,09,34,9.20
2009,09,29,09,35,9.20
2009,09,29,09,36,9.20
2009,09,29,09,37,9.20
2009,09,29,09,38,9.20
2009,09,29,09,39,9.20
2009,09,29,09,40,9.20
2009,09,29,09,41,9.20
2009,09,29,09,42,9.20
2009,09,29,09,43,9.30
2009,09,29,09,44,9.30
2009,09,29,09,45,9.30
2009,09,29,09,46,9.30
2009,09,29,09,47,9.30
2009,09,29,09,48,9.40
2009,09,29,09,49,9.40
2009,09,29,09,50,9.40
2009,09,29,09,51,9.40
2009,09,29,09,52,9.40
2009,09,29,09,53,9.40
2009,09,29,09,54,9.50
2009,09,29,09,55,9.50
2009,09,29,09,56,9.50
2009,09,29,09,57,9.60
2009,09,29,09,58,9.60
2009,09,29,09,59,9.60
2009,09,29,10,00,9.60
2009,09,29,10,01,9.70
2009,09,29,10,02,9.70
2009,09,29,10,03,9.60
2009,09,29,10,04,9.60
2009,09,29,10,05,9.70
2009,09,29,10,06,9.70
2009,09,29,10,07,9.70
2009,09,29,10,08,9.70
2009,09,29,10,09,9.70
2009,09,29,10,10,9.80
2009,09,29,10,11,9.80
2009,09,29,10,12,9.80
2009,09,29,10,13,9.80
2009,09,29,10,14,9.80
2009,09,29,10,15,9.80
2009,09,29,10,16,9.70
2009,09,29,10,17,9.70
2009,09,29,10,18,9.70
2009,09,29,10,19,9.70
2009,09,29,10,20,9.70
2009,09,29,10,21,9.70
2009,09,29,10,22,9.70
2009,09,29,10,23,9.70
2009,09,29,10,24,9.80
2009,09,29,10,25,9.80
2009,09,29,10,26,9.80
2009,09,29,10,27,9.80
2009,09,29,10,28,9.80
2009,09,29,10,29,9.80
2009,09,29,10,30,9.80
2009,09,29,10,31,9.90
2009,09,29,10,32,9.90
2009,09,29,10,33,9.90
2009,09,29,10,34,9.90
2009,09,29,10,35,9.90
2009,09,29,10,36,9.90
2009,09,29,10,37,9.90
2009,09,29,10,38,9.90
2009,09,29,10,39,9.90
2009,09,29,10,40,10.10
2009,09,29,10,41,10.10
2009,09,29,10,42,10.10
2009,09,29,10,43,10.10
2009,09,29,10,44,10.10
2009,09,29,10,45,10.20
2009,09,29,10,46,10.20
2009,09,29,10,47,10.20
2009,09,29,10,48,10.40
2009,09,29,10,49,10.40
2009,09,29,10,50,10.50
2009,09,29,10,51,10.60
2009,09,29,10,52,10.60
2009,09,29,10,53,10.60
2009,09,29,10,54,10.60
2009,09,29,10,55,10.60
2009,09,29,10,56,10.60
2009,09,29,10,57,10.60
2009,09,29,10,58,10.60
2009,09,29,10,59,10.60
2009,09,29,11,00,10.60
2009,09,29,11,01,10.60
2009,09,29,11,02,10.60
2009,09,29,11,03,10.60
2009,09,29,11,04,10.70
2009,09,29,11,05,10.70
2009,09,29,11,06,10.70
2009,09,29,11,07,10.70
2009,09,29,11,08,10.70
2009,09,29,11,09,10.80
2009,09,29,11,10,10.80
2009,09,29,11,11,10.70
2009,09,29,11,12,10.80
2009,09,29,11,13,10.80
2009,09,29,11,14,10.80
2009,09,29,11,15,10.80
2009,09,29,11,16,10.80
2009,09,29,11,17,10.90
2009,09,29,11,18,10.90
2009,09,29,11,19,10.90
2009,09,29,11,20,11.00
2009,09,29,11,21,11.10
2009,09,29,11,22,11.10
2009,09,29,11,23,11.10
2009,09,29,11,24,11.20
2009,09,29,11,25,11.20
2009,09,29,11,26,11.20
2009,09,29,11,27,11.20
2009,09,29,11,28,11.20
2009,09,29,11,29,11.20
2009,09,29,11,30,11.20
2009,09,29,11,31,11.10
2009,09,29,11,32,11.10
2009,09,29,11,33,11.10
2009,09,29,11,34,11.10
2009,09,29,11,35,11.00
2009,09,29,11,36,11.00
2009,09,29,11,37,11.10
2009,09,29,11,38,10.90
2009,09,29,11,39,11.00
2009,09,29,11,40,11.10
2009,09,29,11,41,11.10
2009,09,29,11,42,11.10
2009,09,29,11,43,11.00
2009,09,29,11,44,10.90
2009,09,29,11,45,10.90
2009,09,29,11,46,10.90
2009,09,29,11,47,10.90
2009,09,29,11,48,10.90
2009,09,29,11,49,10.90
2009,09,29,11,50,10.90
2009,09,29,11,51,10.90
2009,09,29,11,52,10.80
2009,09,29,11,53,10.80
2009,09,29,11,54,10.80
2009,09,29,11,55,10.80
2009,09,29,11,56,10.80
2009,09,29,11,57,10.70
2009,09,29,11,58,10.70
2009,09,29,11,59,10.70
2009,09,29,12,00,10.60
2009,09,29,12,01,10.50
2009,09,29,12,02,10.40
2009,09,29,12,03,10.40
2009,09,29,12,04,10.40
2009,09,29,12,05,10.40
2009,09,29,12,06,10.30
2009,09,29,12,07,10.30
2009,09,29,12,08,10.30
2009,09,29,12,09,10.30
2009,09,29,12,10,10.30
2009,09,29,12,11,10.40
2009,09,29,12,12,10.40
2009,09,29,12,13,10.40
2009,09,29,12,14,10.40
2009,09,29,12,15,10.40
2009,09,29,12,16,10.40
2009,09,29,12,17,10.60
2009,09,29,12,18,10.60
2009,09,29,12,19,10.60
2009,09,29,12,20,10.60
2009,09,29,12,21,10.60
2009,09,29,12,22,10.60
2009,09,29,12,23,10.60
2009,09,29,12,24,10.60
2009,09,29,12,25,10.60
2009,09,29,12,26,10.50
2009,09,29,12,27,10.40
2009,09,29,12,28,10.40
2009,09,29,12,29,10.40
2009,09,29,12,30,10.40
2009,09,29,12,31,10.50
2009,09,29,12,32,10.60
2009,09,29,12,33,10.60
2009,09,29,12,34,10.70
2009,09,29,12,35,10.80
2009,09,29,12,36,10.80
2009,09,29,12,37,10.90
2009,09,29,12,38,10.90
2009,09,29,12,39,10.90
2009,09,29,12,40,11.00
2009,09,29,12,41,11.10
2009,09,29,12,42,11.10
2009,09,29,12,43,10.90
2009,09,29,12,44,10.90
2009,09,29,12,45,10.90
2009,09,29,12,46,10.90
2009,09,29,12,47,10.90
2009,09,29,12,48,10.90
2009,09,29,12,49,10.80
2009,09,29,12,50,10.70
2009,09,29,12,51,10.70
2009,09,29,12,52,10.60
2009,09,29,12,53,10.60
2009,09,29,12,54,10.60
2009,09,29,12,55,10.60
2009,09,29,12,56,10.60
2009,09,29,12,57,10.50
2009,09,29,12,58,10.40
2009,09,29,12,59,10.40
2009,09,29,13,00,10.40
2009,09,29,13,01,10.40
2009,09,29,13,02,10.40
2009,09,29,13,03,10.40
2009,09,29,13,04,10.40
2009,09,29,13,05,10.40
2009,09,29,13,06,10.40
2009,09,29,13,07,10.40
2009,09,29,13,08,10.40
2009,09,29,13,09,10.40
2009,09,29,13,10,10.40
2009,09,29,13,11,10.40
2009,09,29,13,12,10.40
2009,09,29,13,13,10.40
2009,09,29,13,14,10.40
2009,09,29,13,15,10.50
2009,09,29,13,16,10.60
2009,09,29,13,17,10.70
2009,09,29,13,18,10.70
2009,09,29,13,19,10.70
2009,09,29,13,20,10.70
2009,09,29,13,21,10.70
2009,09,29,13,22,10.80
2009,09,29,13,23,10.80
2009,09,29,13,24,10.80
2009,09,29,13,25,10.80
2009,09,29,13,26,10.90
2009,09,29,13,27,10.90
2009,09,29,13,28,10.90
2009,09,29,13,29,11.00
2009,09,29,13,30,11.10
2009,09,29,13,31,11.10
2009,09,29,13,32,11.10
2009,09,29,13,33,11.20
2009,09,29,13,34,11.20
2009,09,29,13,35,11.30
2009,09,29,13,36,11.20
2009,09,29,13,37,11.20
2009,09,29,13,38,11.20
2009,09,29,13,39,11.20
2009,09,29,13,40,11.30
2009,09,29,13,41,11.30
2009,09,29,13,42,11.40
2009,09,29,13,43,11.40
2009,09,29,13,44,11.40
2009,09,29,13,45,11.40
2009,09,29,13,46,11.40
2009,09,29,13,47,11.40
2009,09,29,13,48,11.40
2009,09,29,13,49,11.40
2009,09,29,13,50,11.40
2009,09,29,13,51,11.40
2009,09,29,13,52,11.40
2009,09,29,13,53,11.40
2009,09,29,13,54,11.40
2009,09,29,13,55,11.40
2009,09,29,13,56,11.60
2009,09,29,13,57,11.60
2009,09,29,13,58,11.70
2009,09,29,13,59,11.80
2009,09,29,14,00,11.80
2009,09,29,14,01,11.80
2009,09,29,14,02,11.80
2009,09,29,14,03,11.80
2009,09,29,14,04,11.80
2009,09,29,14,05,11.80
2009,09,29,14,06,11.80
2009,09,29,14,07,11.80
2009,09,29,14,08,11.70
2009,09,29,14,09,11.80
2009,09,29,14,10,11.80
2009,09,29,14,11,11.90
2009,09,29,14,12,11.90
2009,09,29,14,13,11.90
2009,09,29,14,14,11.90
2009,09,29,14,15,11.90
2009,09,29,14,16,11.90
2009,09,29,14,17,12.00
2009,09,29,14,18,11.90
2009,09,29,14,19,11.90
2009,09,29,14,20,11.90
2009,09,29,14,21,12.00
2009,09,29,14,22,12.00
2009,09,29,14,23,11.90
2009,09,29,14,24,12.00
2009,09,29,14,25,12.00
2009,09,29,14,26,12.00
2009,09,29,14,27,12.00
2009,09,29,14,28,11.90
2009,09,29,14,29,11.80
2009,09,29,14,30,11.80
2009,09,29,14,31,11.80
2009,09,29,14,32,11.80
2009,09,29,14,33,11.80
2009,09,29,14,34,11.80
2009,09,29,14,35,11.80
2009,09,29,14,36,11.80
2009,09,29,14,37,11.80
2009,09,29,14,38,11.80
2009,09,29,14,39,11.80
2009,09,29,14,40,11.80
2009,09,29,14,41,11.80
2009,09,29,14,42,11.80
2009,09,29,14,43,12.00
2009,09,29,14,44,12.10
2009,09,29,14,45,12.10
2009,09,29,14,46,12.10
2009,09,29,14,47,12.20
2009,09,29,14,48,12.20
2009,09,29,14,49,12.20
2009,09,29,14,50,12.20
2009,09,29,14,51,12.30
2009,09,29,14,52,12.40
2009,09,29,14,53,12.50
2009,09,29,14,54,12.60
2009,09,29,14,55,12.70
2009,09,29,14,56,12.80
2009,09,29,14,57,12.80
2009,09,29,14,58,12.80
2009,09,29,14,59,12.80
2009,09,29,15,00,12.80
2009,09,29,15,01,12.80
2009,09,29,15,02,12.80
2009,09,29,15,03,12.80
2009,09,29,15,04,12.80
2009,09,29,15,05,12.80
2009,09,29,15,06,12.70
2009,09,29,15,07,12.70
2009,09,29,15,08,12.80
2009,09,29,15,09,12.80
2009,09,29,15,10,12.80
2009,09,29,15,11,12.80
2009,09,29,15,12,12.80
2009,09,29,15,13,12.80
2009,09,29,15,14,12.80
2009,09,29,15,15,12.90
2009,09,29,15,16,12.90
2009,09,29,15,17,13.00
2009,09,29,15,18,13.00
2009,09,29,15,19,13.00
2009,09,29,15,20,13.00
2009,09,29,15,21,13.10
2009,09,29,15,22,13.10
2009,09,29,15,23,13.00
2009,09,29,15,24,13.00
2009,09,29,15,25,13.00
2009,09,29,15,26,13.00
2009,09,29,15,27,13.00
2009,09,29,15,28,12.90
2009,09,29,15,29,12.90
2009,09,29,15,30,12.90
2009,09,29,15,31,12.90
2009,09,29,15,32,12.90
2009,09,29,15,33,13.00
2009,09,29,15,34,13.00
2009,09,29,15,35,12.90
2009,09,29,15,36,12.90
2009,09,29,15,37,12.90
2009,09,29,15,38,12.90
2009,09,29,15,39,12.80
2009,09,29,15,40,12.80
2009,09,29,15,41,12.80
2009,09,29,15,42,12.80
2009,09,29,15,43,12.80
2009,09,29,15,44,12.70
2009,09,29,15,45,12.60
2009,09,29,15,46,12.60
2009,09,29,15,47,12.60
2009,09,29,15,48,12.60
2009,09,29,15,49,12.50
2009,09,29,15,50,12.50
2009,09,29,15,51,12.40
2009,09,29,15,52,12.40
2009,09,29,15,53,12.40
2009,09,29,15,54,12.40
2009,09,29,15,55,12.40
2009,09,29,15,56,12.30
2009,09,29,15,57,12.40
2009,09,29,15,58,12.40
2009,09,29,15,59,12.50
2009,09,29,16,00,12.50
2009,09,29,16,01,12.60
2009,09,29,16,02,12.70
2009,09,29,16,03,12.80
2009,09,29,16,04,12.80
2009,09,29,16,05,12.90
2009,09,29,16,06,12.90
2009,09,29,16,07,12.90
2009,09,29,16,08,12.80
2009,09,29,16,09,12.80
2009,09,29,16,10,12.70
2009,09,29,16,11,12.70
2009,09,29,16,12,12.70
2009,09,29,16,13,12.60
2009,09,29,16,14,12.50
2009,09,29,16,15,12.50
2009,09,29,16,16,12.60
2009,09,29,16,17,12.60
2009,09,29,16,18,12.60
2009,09,29,16,19,12.70
2009,09,29,16,20,12.70
2009,09,29,16,21,12.60
2009,09,29,16,22,12.50
2009,09,29,16,23,12.50
2009,09,29,16,24,12.50
2009,09,29,16,25,12.50
2009,09,29,16,26,12.50
2009,09,29,16,27,12.50
2009,09,29,16,28,12.50
2009,09,29,16,29,12.40
2009,09,29,16,30,12.40
2009,09,29,16,31,12.40
2009,09,29,16,32,12.40
2009,09,29,16,33,12.30
2009,09,29,16,34,12.30
2009,09,29,16,35,12.30
2009,09,29,16,36,12.30
2009,09,29,16,37,12.30
2009,09,29,16,38,12.30
2009,09,29,16,39,12.40
2009,09,29,16,40,12.40
2009,09,29,16,41,12.30
2009,09,29,16,42,12.20
2009,09,29,16,43,12.20
2009,09,29,16,44,12.10
2009,09,29,16,45,12.00
2009,09,29,16,46,12.00
2009,09,29,16,47,12.00
2009,09,29,16,48,11.90
2009,09,29,16,49,11.90
2009,09,29,16,50,11.90
2009,09,29,16,51,11.90
2009,09,29,16,52,11.90
2009,09,29,16,53,11.90
2009,09,29,16,54,11.90
2009,09,29,16,55,11.90
2009,09,29,16,56,12.00
2009,09,29,16,57,12.00
2009,09,29,16,58,12.00
2009,09,29,16,59,12.10
2009,09,29,17,00,12.10
2009,09,29,17,01,12.20
2009,09,29,17,02,12.20
2009,09,29,17,03,12.30
2009,09,29,17,04,12.30
2009,09,29,17,05,12.20
2009,09,29,17,06,12.20
2009,09,29,17,07,12.20
2009,09,29,17,08,12.10
2009,09,29,17,09,12.10
2009,09,29,17,10,12.10
2009,09,29,17,11,12.10
2009,09,29,17,12,12.10
2009,09,29,17,13,12.10
2009,09,29,17,14,12.10
2009,09,29,17,15,12.00
2009,09,29,17,16,12.00
2009,09,29,17,17,12.00
2009,09,29,17,18,11.90
2009,09,29,17,19,11.90
2009,09,29,17,20,11.90
2009,09,29,17,21,11.90
2009,09,29,17,22,11.90
2009,09,29,17,23,11.80
2009,09,29,17,24,11.80
2009,09,29,17,25,11.80
2009,09,29,17,26,11.80
2009,09,29,17,27,11.80
2009,09,29,17,28,11.80
2009,09,29,17,29,11.80
2009,09,29,17,30,11.80
2009,09,29,17,31,11.80
2009,09,29,17,32,11.80
2009,09,29,17,33,11.70
2009,09,29,17,34,11.70
2009,09,29,17,35,11.70
2009,09,29,17,36,11.80
2009,09,29,17,37,11.80
2009,09,29,17,38,11.80
2009,09,29,17,39,11.80
2009,09,29,17,40,11.80
2009,09,29,17,41,11.70
2009,09,29,17,42,11.60
2009,09,29,17,43,11.60
2009,09,29,17,44,11.60
2009,09,29,17,45,11.60
2009,09,29,17,46,11.60
2009,09,29,17,47,11.40